This demonstration page uses our WeatherBlox Daily Observations layout. Learn more.

Left ArrowRight Arrow

31.31129, -92.44514

Hourly Observations for December 11, 2015

Temp ( °F °C ) Dew Point ( °F °C ) Humidity (%) Winds ( mph kmh ) Pressure ( in mb ) Visibility ( mi km ) Precip ( " mm )
12:53 am 00:53 Cloudy 70 21.1 67 19.4 90 90 S 10 17 29.87 1012 10 16 0.00 0.00
1:53 am 01:53 Mostly Cloudy 70 21.1 67 19.4 90 90 S 10 17 29.86 1011 10 16 0.00 0.00
2:44 am 02:44 Partly Cloudy 70 21.1 66 18.9 87 87 S 10 17 29.83 1010 10 16 0.00 0.00
2:53 am 02:53 Mostly Cloudy 70 21.1 67 19.4 90 90 S 12 19 29.85 1011 10 16 0.00 0.00
3:53 am 03:53 Cloudy 71 21.7 67 19.4 87 87 SSW 9 15 29.85 1011 10 16 0.00 0.00
4:53 am 04:53 Mostly Cloudy 70 21.1 67 19.4 90 90 S 10 17 29.85 1011 10 16 0.00 0.00
5:41 am 05:41 Partly Cloudy 70 21.1 67 19.4 90 90 S 8 13 29.85 1011 9 14 0.00 0.00
5:53 am 05:53 Partly Cloudy 70 21.1 67 19.4 90 90 S 7 11 29.86 1011 9 14 0.00 0.00
6:04 am 06:04 Mostly Cloudy 70 21.1 67 19.4 90 90 S 7 11 29.85 1011 9 14 0.00 0.00
6:53 am 06:53 Cloudy 70 21.1 67 19.4 90 90 S 10 17 29.88 1012 9 14 0.00 0.00
7:42 am 07:42 Partly Cloudy 70 21.1 67 19.4 90 90 S 12 19 29.88 1012 8 13 0.00 0.00
7:53 am 07:53 Partly Cloudy 71 21.7 67 19.4 87 87 S 13 20 29.89 1012 8 13 0.00 0.00
8:23 am 08:23 Mostly Cloudy 71 21.7 68 20 90 90 S 13 20 29.91 1013 8 13 0.00 0.00
8:53 am 08:53 Cloudy 72 22.2 68 20 87 87 S 13 20 29.92 1013 9 14 0.00 0.00
9:53 am 09:53 Cloudy 74 23.3 68 20 82 82 S 13 20 29.92 1013 10 16 0.00 0.00
10:53 am 10:53 Mostly Cloudy 77 25 67 19.4 71 71 S 23 37 29.91 1013 10 16 0.00 0.00
11:00 am 11:00 Partly Cloudy 77 25 67 19.4 71 71 S 18 30 29.91 1013 10 16 0.00 0.00
11:53 am 11:53 Partly Cloudy 79 26.1 66 18.9 65 65 S 21 33 29.90 1013 10 16 0.00 0.00
12:53 pm 12:53 Mostly Cloudy 79 26.1 64 17.8 60 60 SSW 18 30 29.88 1012 10 16 0.00 0.00
1:53 pm 13:53 Mostly Cloudy 81 27.2 65 18.3 58 58 SSW 14 22 29.87 1012 10 16 0.00 0.00
2:53 pm 14:53 Partly Cloudy 80 26.7 62 16.7 54 54 S 17 28 29.87 1011 10 16 0.00 0.00
3:53 pm 15:53 Partly Cloudy 80 26.7 64 17.8 58 58 S 12 19 29.88 1012 10 16 0.00 0.00
4:53 pm 16:53 Partly Cloudy 76 24.4 66 18.9 72 72 S 12 19 29.90 1012 10 16 0.00 0.00
5:53 pm 17:53 Clear 73 22.8 67 19.4 81 81 S 9 15 29.92 1013 10 16 0.00 0.00
6:53 pm 18:53 Partly Cloudy 71 21.7 67 19.4 87 87 SSE 8 13 29.94 1014 10 16 0.00 0.00
7:53 pm 19:53 Clear 71 21.7 67 19.4 87 87 S 9 15 29.96 1015 10 16 0.00 0.00
8:53 pm 20:53 Clear 69 20.6 67 19.4 93 93 SSE 7 11 29.97 1015 10 16 0.00 0.00
9:36 pm 21:36 Mostly Cloudy 69 20.6 67 19.4 93 93 SSE 9 15 29.97 1015 10 16 0.00 0.00
9:53 pm 21:53 Mostly Cloudy 68 20 67 19.4 96 96 SSE 8 13 29.97 1015 9 14 0.00 0.00
10:31 pm 22:31 Mostly Cloudy 69 20.6 68 20 96 96 SSE 9 15 29.97 1015 9 14 0.00 0.00
10:43 pm 22:43 Mostly Cloudy 69 20.6 68 20 96 96 SSE 9 15 29.97 1015 9 14 0.00 0.00
10:53 pm 22:53 Cloudy 70 21.1 68 20 93 93 SSE 10 17 29.97 1015 10 16 0.00 0.00
11:53 pm 23:53 Cloudy 70 21.1 68 20 93 93 SSE 12 19 29.97 1015 10 16 0.00 0.00

Powered by AerisWeather